This is the latest recevied weather packets stored in our database for station/object KN6WGU. If no packets are shown the sender has not sent any weather packets the latest 10 day(s).
| Time | Temp. | Humidity | Pressure | Rain* | Wind** | Luminosity | Snow |
|---|---|---|---|---|---|---|---|
| 1778050321 | 7.78° C | 99% | 1001.7 hPa | 0 mm | - | 0 W/m² | - |
| 1778050018 | 7.78° C | 99% | 1001.6 hPa | 0 mm | - | 0 W/m² | - |
| 1778049714 | 8.33° C | 99% | 1001.6 hPa | 0 mm | - | 0 W/m² | - |
| 1778049412 | 8.33° C | 99% | 1001.6 hPa | 1.27 mm | - | 0 W/m² | - |
| 1778049109 | 8.33° C | 99% | 1001.4 hPa | 1.27 mm | - | 0 W/m² | - |
| 1778048807 | 7.78° C | 99% | 1001.3 hPa | 1.78 mm | - | 0 W/m² | - |
| 1778048503 | 8.33° C | 99% | 1001.3 hPa | 1.78 mm | - | 0 W/m² | - |
| 1778048199 | 8.33° C | 99% | 1001.4 hPa | 0 mm | - | 0 W/m² | - |
| 1778047897 | 7.78° C | 99% | 1001.8 hPa | 1.27 mm | - | 0 W/m² | - |
| 1778047596 | 7.78° C | 99% | 1002.1 hPa | 1.27 mm | - | 0 W/m² | - |
| 1778047292 | 7.78° C | 99% | 1002 hPa | 0 mm | - | 0 W/m² | - |
| 1778046990 | 7.78° C | 99% | 1002.1 hPa | 0 mm | - | 0 W/m² | - |
| 1778046686 | 7.78° C | 99% | 1002 hPa | 0 mm | - | 0 W/m² | - |
| 1778046383 | 7.78° C | 99% | 1002 hPa | 0 mm | - | 0 W/m² | - |
| 1778046079 | 7.78° C | 99% | 1001.9 hPa | 1.78 mm | - | 0 W/m² | - |
| 1778045777 | 7.78° C | 99% | 1001.9 hPa | 1.78 mm | - | 0 W/m² | - |
| 1778045476 | 7.78° C | 99% | 1001.9 hPa | 0 mm | - | 0 W/m² | - |
| 1778045173 | 7.78° C | 99% | 1001.7 hPa | 1.27 mm | - | 0 W/m² | - |
| 1778044871 | 7.78° C | 99% | 1002 hPa | 1.27 mm | - | 0 W/m² | - |
| 1778044568 | 7.78° C | 99% | 1001.9 hPa | 1.78 mm | - | 0 W/m² | - |
| 1778044264 | 7.78° C | 99% | 1001.7 hPa | 1.78 mm | - | 0 W/m² | - |
| 1778043963 | 7.78° C | 99% | 1001.7 hPa | 0 mm | - | 0 W/m² | - |
| 1778043659 | 7.78° C | 99% | 1001.9 hPa | 1.27 mm | - | 0 W/m² | - |
| 1778043356 | 7.78° C | 99% | 1001.7 hPa | 1.27 mm | - | 0 W/m² | - |
| 1778043052 | 7.78° C | 99% | 1002 hPa | 1.78 mm | - | 0 W/m² | - |
* Rain latest hour (hover to see other rain measurements)
** Current wind speed in m/s (hover to see current wind gust speed)